EN

Hourly Weather Almoloya

Today, 16 January, Saturday

Time Temperature Precipitation Wind Pressure Humidity
00:00 +17°C° 0 mm 2 mps 625 mmHg 62%
01:00 +16°C° 0 mm 2 mps 625 mmHg 63%
02:00 +16°C° 0 mm 2 mps 624 mmHg 63%
03:00 +16°C° 0 mm 2 mps 624 mmHg 63%
04:00 +16°C° 0 mm 1 mps 625 mmHg 63%
05:00 +16°C° 0 mm 1 mps 625 mmHg 64%
06:00 +18°C° 0 mm 1 mps 625 mmHg 61%
07:00 +19°C° 0 mm 1 mps 626 mmHg 58%
08:00 +19°C° 0 mm 0 mps 627 mmHg 55%
09:00 +23°C° 0 mm 1 mps 627 mmHg 50%
10:00 +24°C° 0 mm 1 mps 628 mmHg 45%
11:00 +26°C° 0 mm 2 mps 628 mmHg 40%
12:00 +26°C° 0.2 mm 2 mps 627 mmHg 41%
13:00 +26°C° 0.2 mm 2 mps 626 mmHg 41%
14:00 +26°C° 0.2 mm 3 mps 625 mmHg 41%
15:00 +24°C° 0.2 mm 2 mps 625 mmHg 46%
16:00 +23°C° 0.2 mm 1 mps 624 mmHg 52%
17:00 +21°C° 0.2 mm 1 mps 624 mmHg 57%
18:00 +20°C° 0 mm 1 mps 624 mmHg 59%
19:00 +19°C° 0 mm 1 mps 624 mmHg 62%
20:00 +18°C° 0 mm 1 mps 625 mmHg 64%
21:00 +18°C° 0 mm 1 mps 625 mmHg 63%
22:00 +19°C° 0 mm 1 mps 625 mmHg 63%
23:00 +19°C° 0 mm 1 mps 625 mmHg 62%

Tomorrow, 17 January, Sunday

Time Temperature Precipitation Wind Pressure Humidity
00:00 +18°C° 0 mm 1 mps 625 mmHg 63%
01:00 +18°C° 0 mm 1 mps 625 mmHg 64%
02:00 +16°C° 0 mm 1 mps 624 mmHg 66%
03:00 +16°C° 0 mm 1 mps 624 mmHg 67%
04:00 +15°C° 0 mm 1 mps 624 mmHg 69%
05:00 +15°C° 0 mm 1 mps 624 mmHg 70%
06:00 +16°C° 0 mm 1 mps 625 mmHg 66%
07:00 +17°C° 0 mm 0 mps 626 mmHg 62%
08:00 +18°C° 0 mm 0 mps 627 mmHg 58%
09:00 +20°C° 0 mm 0 mps 627 mmHg 52%
10:00 +24°C° 0 mm 1 mps 628 mmHg 46%
11:00 +26°C° 0 mm 2 mps 628 mmHg 39%
12:00 +26°C° 0 mm 2 mps 627 mmHg 38%
13:00 +26°C° 0 mm 2 mps 626 mmHg 37%
14:00 +26°C° 0 mm 3 mps 626 mmHg 36%
15:00 +25°C° 0 mm 2 mps 625 mmHg 42%
16:00 +23°C° 0 mm 2 mps 625 mmHg 47%
17:00 +22°C° 0 mm 1 mps 624 mmHg 53%
18:00 +20°C° 0.1 mm 1 mps 624 mmHg 58%
19:00 +19°C° 0.1 mm 1 mps 624 mmHg 62%
20:00 +17°C° 0.1 mm 2 mps 624 mmHg 66%
21:00 +16°C° 0.1 mm 2 mps 625 mmHg 67%
22:00 +16°C° 0.1 mm 2 mps 625 mmHg 68%
23:00 +16°C° 0.1 mm 2 mps 625 mmHg 68%

Day after tomorrow, 18 January, Monday

Time Temperature Precipitation Wind Pressure Humidity
00:00 +16°C° 0 mm 1 mps 625 mmHg 69%
01:00 +15°C° 0 mm 1 mps 624 mmHg 69%
02:00 +15°C° 0 mm 1 mps 624 mmHg 69%
03:00 +15°C° 0 mm 1 mps 624 mmHg 70%
04:00 +15°C° 0 mm 1 mps 624 mmHg 72%
05:00 +14°C° 0 mm 1 mps 624 mmHg 73%
06:00 +16°C° 0 mm 1 mps 625 mmHg 68%
07:00 +19°C° 0 mm 1 mps 626 mmHg 64%
08:00 +19°C° 0 mm 0 mps 627 mmHg 59%
09:00 +22°C° 0 mm 1 mps 627 mmHg 53%
10:00 +24°C° 0 mm 1 mps 627 mmHg 47%
11:00 +26°C° 0 mm 2 mps 628 mmHg 41%
12:00 +26°C° 0 mm 2 mps 627 mmHg 40%
13:00 +26°C° 0 mm 2 mps 626 mmHg 39%
14:00 +26°C° 0 mm 2 mps 625 mmHg 38%
15:00 +25°C° 0.1 mm 2 mps 625 mmHg 44%
16:00 +23°C° 0.1 mm 1 mps 624 mmHg 51%
17:00 +22°C° 0.1 mm 1 mps 624 mmHg 58%
18:00 +20°C° 0 mm 1 mps 624 mmHg 63%
19:00 +19°C° 0 mm 1 mps 624 mmHg 67%
20:00 +16°C° 0 mm 1 mps 625 mmHg 72%
21:00 +16°C° 0 mm 1 mps 625 mmHg 73%
22:00 +16°C° 0 mm 1 mps 625 mmHg 73%
23:00 +16°C° 0 mm 2 mps 625 mmHg 74%

19 January, Tuesday

Time Temperature Precipitation Wind Pressure Humidity
00:00 +15°C° 0 mm 1 mps 625 mmHg 74%
01:00 +15°C° 0 mm 1 mps 625 mmHg 74%
02:00 +15°C° 0 mm 1 mps 625 mmHg 74%
03:00 +15°C° 0 mm 1 mps 625 mmHg 74%
04:00 +15°C° 0 mm 1 mps 625 mmHg 74%
05:00 +15°C° 0 mm 1 mps 625 mmHg 73%
06:00 +16°C° 0 mm 1 mps 626 mmHg 69%
07:00 +19°C° 0 mm 1 mps 627 mmHg 64%
08:00 +18°C° 0 mm 0 mps 628 mmHg 59%
09:00 +22°C° 0 mm 1 mps 628 mmHg 53%
10:00 +24°C° 0 mm 1 mps 629 mmHg 47%
11:00 +26°C° 0 mm 2 mps 629 mmHg 41%
12:00 +27°C° 0.2 mm 2 mps 628 mmHg 40%
13:00 +27°C° 0.2 mm 2 mps 627 mmHg 40%
14:00 +27°C° 0.2 mm 2 mps 627 mmHg 40%
15:00 +25°C° 0.1 mm 1 mps 626 mmHg 45%
16:00 +24°C° 0.1 mm 1 mps 626 mmHg 50%
17:00 +23°C° 0.1 mm 1 mps 625 mmHg 56%
18:00 +21°C° 0 mm 1 mps 625 mmHg 60%
19:00 +20°C° 0 mm 1 mps 626 mmHg 64%
20:00 +18°C° 0 mm 1 mps 626 mmHg 68%
21:00 +18°C° 0.1 mm 1 mps 626 mmHg 68%
22:00 +18°C° 0.1 mm 1 mps 626 mmHg 69%
23:00 +17°C° 0.1 mm 2 mps 626 mmHg 69%

20 January, Wednesday

Time Temperature Precipitation Wind Pressure Humidity
00:00 +18°C° 0 mm 1 mps 626 mmHg 69%
01:00 +16°C° 0 mm 1 mps 626 mmHg 68%
02:00 +16°C° 0 mm 1 mps 626 mmHg 68%
03:00 +16°C° 0 mm 1 mps 626 mmHg 68%
04:00 +16°C° 0 mm 2 mps 626 mmHg 68%
05:00 +15°C° 0 mm 2 mps 626 mmHg 69%
06:00 +18°C° 0 mm 1 mps 627 mmHg 65%
07:00 +19°C° 0 mm 1 mps 628 mmHg 61%
08:00 +21°C° 0 mm 1 mps 628 mmHg 57%
09:00 +23°C° 0 mm 1 mps 629 mmHg 50%
10:00 +25°C° 0 mm 1 mps 629 mmHg 43%
11:00 +27°C° 0 mm 1 mps 629 mmHg 36%
12:00 +28°C° 0 mm 2 mps 629 mmHg 35%
13:00 +28°C° 0 mm 2 mps 628 mmHg 34%
14:00 +28°C° 0 mm 3 mps 627 mmHg 33%
15:00 +26°C° 0 mm 2 mps 627 mmHg 38%
16:00 +25°C° 0 mm 2 mps 626 mmHg 44%
17:00 +23°C° 0 mm 1 mps 626 mmHg 49%
18:00 +22°C° 0 mm 1 mps 626 mmHg 53%
19:00 +19°C° 0 mm 2 mps 626 mmHg 56%
20:00 +18°C° 0 mm 2 mps 626 mmHg 60%
21:00 +18°C° 0 mm 2 mps 626 mmHg 59%
22:00 +17°C° 0 mm 2 mps 626 mmHg 59%
23:00 +17°C° 0 mm 2 mps 626 mmHg 59%

21 January, Thursday

Time Temperature Precipitation Wind Pressure Humidity
00:00 +17°C° 0 mm 2 mps 626 mmHg 60%
01:00 +16°C° 0 mm 2 mps 626 mmHg 60%
02:00 +16°C° 0 mm 2 mps 626 mmHg 61%
03:00 +16°C° 0 mm 2 mps 626 mmHg 60%
04:00 +15°C° 0 mm 2 mps 626 mmHg 59%
05:00 +15°C° 0 mm 2 mps 626 mmHg 58%
06:00 +16°C° 0 mm 1 mps 627 mmHg 55%
07:00 +19°C° 0 mm 1 mps 627 mmHg 51%
08:00 +20°C° 0 mm 1 mps 628 mmHg 48%
09:00 +22°C° 0 mm 1 mps 628 mmHg 44%
10:00 +24°C° 0 mm 1 mps 629 mmHg 39%
11:00 +26°C° 0 mm 2 mps 629 mmHg 34%
12:00 +26°C° 0 mm 2 mps 628 mmHg 33%
13:00 +27°C° 0 mm 2 mps 627 mmHg 32%
14:00 +27°C° 0 mm 2 mps 626 mmHg 31%
15:00 +25°C° 0 mm 2 mps 626 mmHg 37%
16:00 +24°C° 0 mm 1 mps 625 mmHg 42%
17:00 +22°C° 0 mm 1 mps 625 mmHg 47%
18:00 +21°C° 0 mm 1 mps 625 mmHg 50%
19:00 +19°C° 0 mm 1 mps 625 mmHg 54%
20:00 +18°C° 0 mm 1 mps 625 mmHg 57%
21:00 +18°C° 0 mm 1 mps 625 mmHg 57%
22:00 +16°C° 0 mm 2 mps 625 mmHg 58%
23:00 +16°C° 0 mm 2 mps 625 mmHg 58%
Show more